This demonstration page uses our WeatherBlox Daily Observations layout. Learn more.

Left ArrowRight Arrow

39.01783, -85.05884

Hourly Observations for February 4, 2017

Temp ( °F °C ) Dew Point ( °F °C ) Humidity (%) Winds ( mph kmh ) Pressure ( in mb ) Visibility ( mi km ) Precip ( " mm )
12:52 am 00:52 Clear 15 -9.4 7 -13.9 70 70 Calm 30.51 1033 10 16 0.00 0.00
1:52 am 01:52 Clear 13 -10.6 8 -13.3 81 81 WSW 3 6 30.50 1033 10 16 0.00 0.00
2:52 am 02:52 Clear 13 -10.6 8 -13.3 81 81 WSW 5 7 30.51 1033 10 16 0.00 0.00
3:52 am 03:52 Clear 12 -11.1 9 -12.8 87 87 Calm 30.51 1033 8 13 0.00 0.00
4:52 am 04:52 Clear 12 -11.1 9 -12.8 87 87 S 3 6 30.51 1033 9 14 0.00 0.00
5:52 am 05:52 Clear 13 -10.6 7 -13.9 77 77 Calm 30.52 1033 10 16 0.00 0.00
6:52 am 06:52 Clear 11 -11.7 8 -13.3 88 88 Calm 30.53 1034 9 14 0.00 0.00
7:52 am 07:52 Mostly Sunny 12 -11.1 8 -13.3 84 84 S 3 6 30.53 1034 7 11 0.00 0.00
8:52 am 08:52 Mostly Sunny 18 -7.8 13 -10.6 81 81 S 6 9 30.52 1034 9 14 0.00 0.00
9:52 am 09:52 Partly Cloudy 25 -3.9 14 -10 63 63 S 5 7 30.52 1033 10 16 0.00 0.00
10:52 am 10:52 Mostly Cloudy 27 -2.8 8 -13.3 45 45 SSE 8 13 30.52 1033 10 16 0.00 0.00
11:52 am 11:52 Mostly Cloudy 29 -1.7 7 -13.9 39 39 S 9 15 30.48 1032 10 16 0.00 0.00
12:52 pm 12:52 Mostly Cloudy 31 -0.6 8 -13.3 38 38 S 10 17 30.43 1031 10 16 0.00 0.00
1:52 pm 13:52 Partly Cloudy 33 0.6 4 -15.6 29 29 S 13 20 30.39 1029 10 16 0.00 0.00
2:52 pm 14:52 Partly Cloudy 36 2.2 7 -13.9 30 30 SSW 9 15 30.32 1027 10 16 0.00 0.00
3:52 pm 15:52 Mostly Cloudy 35 1.7 6 -14.4 29 29 S 8 13 30.29 1026 10 16 0.00 0.00
4:52 pm 16:52 Mostly Cloudy 35 1.7 6 -14.4 29 29 SSE 13 20 30.24 1024 10 16 0.00 0.00
5:52 pm 17:52 Mostly Cloudy 34 1.1 5 -15 29 29 SSE 10 17 30.22 1023 10 16 0.00 0.00
6:52 pm 18:52 Partly Cloudy 30 -1.1 7 -13.9 38 38 SSE 9 15 30.19 1023 10 16 0.00 0.00
7:52 pm 19:52 Clear 30 -1.1 9 -12.8 41 41 SSE 9 15 30.16 1022 10 16 0.00 0.00
8:52 pm 20:52 Cloudy 32 0 10 -12.2 40 40 SSE 7 11 30.14 1021 10 16 0.00 0.00
9:52 pm 21:52 Cloudy 33 0.6 11 -11.7 40 40 S 8 13 30.12 1020 10 16 0.00 0.00
10:52 pm 22:52 Cloudy 33 0.6 11 -11.7 40 40 S 6 9 30.10 1019 10 16 0.00 0.00
11:52 pm 23:52 Cloudy 34 1.1 11 -11.7 38 38 S 10 17 30.06 1018 10 16 0.00 0.00

Powered by AerisWeather